North Platte, NE

9:48 AM CDT on May 26, 2017 (GMT -0500)
North Platte Regional-Bird

Weather History for KLBF - August, 2012

Change the Weather History Date:

Friday, August 17, 2012

  Actual Average Record
Temperature  
Mean Temperature 63 °F 72 °F  
Max Temperature 81 °F 86 °F 104 °F (1936)
Min Temperature 45 °F 58 °F 45 °F (1890)
Degree Days  
Heating Degree Days 2 0  
Month to date heating degree days 8 0  
Since 1 June heating degree days 14 56  
Since 1 July heating degree days 8 5  
Cooling Degree Days 0 8  
Month to date cooling degree days 151 147  
Year to date cooling degree days 1037 606  
Since 1 June cooling degree days 958 578  
Growing Degree Days 12 (Base 50)    
Moisture  
Dew Point 44 °F    
Average Humidity 55    
Maximum Humidity 82    
Minimum Humidity 28    
Precipitation  
Precipitation 0.00 in 0.08 in 2.06 in (1999)
Month to date precipitation 0.96 1.50  
Year to date precipitation 9.11 15.43  
Snow  
Snow 0.00 in 0.00 in 0.00 in (2002)
Month to date snowfall 0.0 0.0  
Since 1 June snowfall 0.0 0.0  
Since 1 July snowfall 0.0 0.0  
Snow Depth 0.00 in    
Sea Level Pressure  
Sea Level Pressure 30.11 in    
Wind  
Wind Speed 6 mph (SE)    
Max Wind Speed 16 mph    
Max Gust Speed 29 mph    
Visibility 10 miles    
Events      
T = Trace of Precipitation, MM = Missing Value Source: NWS Daily Summary

Daily Weather History Graph

Daily Weather History Graph

Search for Another Location

Airport or City:

Trip Planner

Search our weather history database for the weather conditions in past years. The results will help you decide how hot, cold, wet, or windy it might be!

Date:

Astronomy

Aug. 17, 2012 Rise Set
Actual Time 6:54 AM CDT 8:37 PM CDT
Civil Twilight 6:25 AM CDT 9:07 PM CDT
Nautical Twilight 5:49 AM CDT 9:42 PM CDT
Astronomical Twilight 5:11 AM CDT 10:20 PM CDT
Moon 7:00 AM CDT (8/17) 8:21 PM CDT (8/17)
Length of Visible Light 14h 41m
Length of Day
13h 42m
New Moon, 0% of the Moon is Illuminated
Aug 17
New Moon
Aug 24
First Quarter
Aug 31
Full
Sep 8
Last Quarter
Sep 15
New

Hourly Weather History & Observations

Time (CDT) Temp. Windchill Dew Point Humidity Pressure Visibility Wind Dir Wind Speed Gust Speed Precip Events Conditions
12:53 AM 46.9 °F - 41.0 °F 80% 30.18 in 10.0 mi Calm Calm - N/A   Clear
1:53 AM 46.9 °F - 39.9 °F 77% 30.17 in 10.0 mi Calm Calm - N/A   Clear
2:53 AM 46.0 °F 43.9 °F 41.0 °F 83% 30.18 in 10.0 mi East 4.6 mph - N/A   Partly Cloudy
3:53 AM 50.0 °F - 42.1 °F 74% 30.16 in 10.0 mi ENE 3.5 mph - N/A   Overcast
4:53 AM 48.0 °F - 41.0 °F 77% 30.16 in 10.0 mi Calm Calm - N/A   Scattered Clouds
5:53 AM 48.9 °F - 41.0 °F 74% 30.15 in 10.0 mi Calm Calm - N/A   Overcast
6:53 AM 50.0 °F - 43.0 °F 77% 30.16 in 10.0 mi Calm Calm - N/A   Overcast
7:53 AM 54.0 °F - 42.1 °F 64% 30.17 in 10.0 mi Calm Calm - N/A   Mostly Cloudy
8:53 AM 60.8 °F - 46.4 °F 59% 30.20 in 10.0 mi Calm Calm - N/A   Mostly Cloudy
9:53 AM 62.1 °F - 44.1 °F 52% 30.17 in 10.0 mi South 3.5 mph - N/A   Overcast
10:53 AM 64.0 °F - 45.0 °F 50% 30.17 in 10.0 mi SSE 3.5 mph - N/A   Overcast
11:53 AM 69.1 °F - 45.0 °F 42% 30.15 in 10.0 mi South 8.1 mph - N/A   Overcast
12:53 PM 72.0 °F - 42.1 °F 34% 30.12 in 10.0 mi Variable 6.9 mph - N/A   Mostly Cloudy
1:53 PM 77.0 °F - 41.0 °F 28% 30.09 in 10.0 mi SE 9.2 mph - N/A   Clear
2:53 PM 78.1 °F - 43.0 °F 29% 30.07 in 10.0 mi Variable 6.9 mph - N/A   Clear
3:53 PM 80.1 °F - 44.1 °F 28% 30.04 in 10.0 mi SSW 9.2 mph - N/A   Overcast
4:53 PM 80.1 °F - 44.1 °F 28% 30.02 in 10.0 mi South 8.1 mph - N/A   Clear
5:53 PM 79.0 °F - 45.0 °F 30% 30.01 in 10.0 mi ESE 10.4 mph - N/A   Partly Cloudy
6:53 PM 77.0 °F - 46.9 °F 34% 29.99 in 10.0 mi ESE 11.5 mph - N/A   Clear
7:53 PM 72.0 °F - 48.0 °F 43% 29.99 in 10.0 mi ESE 12.7 mph - N/A   Clear
8:53 PM 64.0 °F - 48.9 °F 58% 30.01 in 10.0 mi ESE 9.2 mph - N/A   Clear
9:53 PM 59.0 °F - 48.9 °F 69% 30.03 in 10.0 mi ESE 6.9 mph - N/A   Clear
10:53 PM 55.9 °F - 48.9 °F 77% 30.04 in 10.0 mi ESE 6.9 mph - N/A   Clear
11:53 PM 55.9 °F - 48.9 °F 77% 30.03 in 10.0 mi East 9.2 mph - N/A   Clear